Hourly Data Report for September 28, 2022

TORONTO CITY
ONTARIO
Current Station Operator: ECCC - MSC

43°40'00.000" N
79°24'00.000" W
112.50 m
6158355
71508
XTO

Download Data

Hourly Data (September 2022)
Hourly Data Report for September 28, 2022
TIME
LST
Temp Definition
°C
Dew Point Definition
°C
Rel Hum Definition
%
Precip. Amount Definition
mm

Wind Dir Definition
10's deg

Wind Spd Definition
km/h
Visibility Definition
km
Stn Press Definition
kPa
Hmdx Definition


Wind Chill Definition


Weather Definition


00:00 12.6 10.4 86 0.0       100.19     LegendNANA
01:00 12.2 9.9 86 0.0       100.24     LegendNANA
02:00 11.9 9.7 86 0.0       100.28     LegendNANA
03:00 12.1 9.7 85 0.0       100.34     LegendNANA
04:00 12.1 9.7 85 0.0       100.43     LegendNANA
05:00 11.8 9.4 85 0.0       100.51     LegendNANA
06:00 11.7 9.3 85 0.0       100.60     LegendNANA
07:00 11.8 9.5 86 0.0       100.71     LegendNANA
08:00 12.0 9.2 83 0.0       100.78     LegendNANA
09:00 12.2 8.8 80 0.0       100.89     LegendNANA
10:00 12.5 8.6 77 0.0       100.99     LegendNANA
11:00 12.4 8.3 76 0.0       101.05     LegendNANA
12:00 13.1 7.8 70 0.0       101.11     LegendNANA
13:00 12.9 7.3 69 0.0       101.18     LegendNANA
14:00 13.3 7.0 66 0.0       101.20     LegendNANA
15:00 13.3 7.4 67 0.0       101.26     LegendNANA
16:00 13.0 6.4 64 0.0       101.31     LegendNANA
17:00 13.0 6.4 64 0.0       101.34     LegendNANA
18:00 13.0 6.7 65 0.0       101.39     LegendNANA
19:00 12.8 5.7 62 0.0       101.45     LegendNANA
20:00 12.4 7.3 71 0.0       101.51     LegendNANA
21:00 12.2 7.2 71 0.0       101.56     LegendNANA
22:00 12.0 7.1 72 0.0       101.62     LegendNANA
23:00 11.8 6.9 72 0.0       101.67     LegendNANA

Notes on Data Quality.

Legend

  • E = Estimated
  • M = Missing
  • NA = Not Available*
  • [empty] = Indicates an unobserved value
Date modified: